Погода в Мелехово

Россия / Владимирская область     56°15′46″N   41°18′43″E
темп.,
°C
ветер,
м/с
пор.,
м/с
влажн.,
%
обл.,
%
осадки,
мм/ч
давл.,
гПа
погр.,
м
8 марта, пн
пн800:00−11зюз238933 0.0 99321
03:00−9з379550 0.8 995395
06:00−11з4894100 0.1 995220
09:00−10з3593100 0.1 996249
12:00−7зсз3489100 0.1 997530
15:00−5зсз4681100 0.3 999952
18:00−9сз399055 0.1 1002272
21:00−12сз369756 0.1 1006186
9 марта, вт
вт900:00−14сз259888 0.1 1007122
03:00−16сз259894 0.1 1010102
06:00−18ссз369898 0.1 1011173
09:00−17ссз359598 0.1 1013262
12:00−14ссз3588100 0.0 1014452
15:00−12ссз4587100 0.1 1015678
18:00−15ссз3893100 0.1 1017463
21:00−18ссз3996100 0.1 1020417
10 марта, ср
ср1000:00−20ссз3898100 0.1 1021257
03:00−23ссз3798100 0.1 1022214
06:00−26ссз379791 0.0 1024200
09:00−24с369476 0.0 1026267
12:00−19ссз368458 0.0 1026503
15:00−15сз467938 0.0 1026761
18:00−18зсз369394 0.0 1026177
21:00−18сз399696 0.1 1027318
11 марта, чт
чт1100:00−21сз25100100 0.1 1028103
03:00−22зсз2310097 0.1 102968
06:00−22зсз3410066 0.0 102973
09:00−17зсз369467 0.0 1030235
12:00−11зсз368961 0.0 1029354
15:00−8зсз368965 0.0 1029442
18:00−12з349696 0.0 102979
21:00−15з239648 0.0 103023
12 марта, пт
пт1200:00−16зюз23950 0.0 103026
03:00−17юз23980 0.0 103038
06:00−19ююз33980 0.0 103080
09:00−14ююз37910 0.0 1029267
12:00−9ююз59760 0.0 1027681
15:00−7ю611750 0.0 1025804
18:00−10ю5138267 0.0 1023528
21:00−11ю6148683 0.0 1022640